• In Uzbekistan
  • List of Countries
  • For 7 days
  • Water Temperature
  • Satellite Maps
  • Weather Map
  • Weather Widgets
  • user-avatar
    Login

    Hourly Weather Canillo

    Today, 21 August, Tuesday

    Time Temperature Precipitation Wind Pressure Humidity
    00:00 +10°C° 0 mm 2 mps 622 mmHg 75%
    01:00 +10°C° 0 mm 2 mps 622 mmHg 74%
    02:00 +10°C° 0 mm 2 mps 621 mmHg 73%
    03:00 +10°C° 0 mm 2 mps 621 mmHg 72%
    04:00 +10°C° 0 mm 2 mps 621 mmHg 71%
    05:00 +11°C° 0 mm 1 mps 622 mmHg 70%
    06:00 +11°C° 0 mm 1 mps 622 mmHg 69%
    07:00 +14°C° 0 mm 1 mps 623 mmHg 61%
    08:00 +18°C° 0 mm 1 mps 624 mmHg 52%
    09:00 +21°C° 0 mm 1 mps 625 mmHg 44%
    10:00 +22°C° 0 mm 1 mps 625 mmHg 42%
    11:00 +23°C° 0 mm 1 mps 626 mmHg 40%
    12:00 +24°C° 0 mm 1 mps 626 mmHg 37%
    13:00 +23°C° 0.1 mm 1 mps 625 mmHg 41%
    14:00 +23°C° 0.1 mm 1 mps 625 mmHg 45%
    15:00 +22°C° 0.1 mm 1 mps 624 mmHg 48%
    16:00 +21°C° 0.3 mm 1 mps 624 mmHg 54%
    17:00 +20°C° 0.3 mm 1 mps 623 mmHg 59%
    18:00 +18°C° 0.3 mm 1 mps 623 mmHg 65%
    19:00 +16°C° 0.2 mm 1 mps 622 mmHg 68%
    20:00 +15°C° 0.2 mm 1 mps 622 mmHg 71%
    21:00 +14°C° 0.2 mm 1 mps 622 mmHg 74%
    22:00 +13°C° 0 mm 1 mps 622 mmHg 75%
    23:00 +13°C° 0 mm 1 mps 622 mmHg 75%

    Tomorrow, 22 August, Wednesday

    Time Temperature Precipitation Wind Pressure Humidity
    00:00 +13°C° 0 mm 1 mps 621 mmHg 76%
    01:00 +12°C° 0 mm 1 mps 621 mmHg 76%
    02:00 +12°C° 0 mm 1 mps 621 mmHg 75%
    03:00 +12°C° 0 mm 1 mps 621 mmHg 75%
    04:00 +12°C° 0 mm 1 mps 621 mmHg 75%
    05:00 +12°C° 0 mm 1 mps 621 mmHg 74%
    06:00 +13°C° 0 mm 1 mps 621 mmHg 73%
    07:00 +15°C° 0.1 mm 1 mps 623 mmHg 66%
    08:00 +19°C° 0.1 mm 1 mps 624 mmHg 58%
    09:00 +21°C° 0.1 mm 1 mps 625 mmHg 50%
    10:00 +22°C° 0.8 mm 1 mps 625 mmHg 49%
    11:00 +22°C° 0.8 mm 1 mps 625 mmHg 49%
    12:00 +23°C° 0.8 mm 1 mps 625 mmHg 48%
    13:00 +22°C° 1.3 mm 1 mps 624 mmHg 51%
    14:00 +22°C° 1.3 mm 1 mps 624 mmHg 53%
    15:00 +22°C° 1.3 mm 1 mps 624 mmHg 55%
    16:00 +20°C° 2.4 mm 1 mps 623 mmHg 60%
    17:00 +19°C° 2.4 mm 1 mps 623 mmHg 66%
    18:00 +16°C° 2.4 mm 1 mps 622 mmHg 71%
    19:00 +15°C° 1 mm 1 mps 622 mmHg 73%
    20:00 +14°C° 1 mm 1 mps 622 mmHg 76%
    21:00 +14°C° 1 mm 2 mps 622 mmHg 78%
    22:00 +13°C° 0.1 mm 1 mps 622 mmHg 77%
    23:00 +13°C° 0.1 mm 1 mps 622 mmHg 76%

    Day after tomorrow, 23 August, Thursday

    Time Temperature Precipitation Wind Pressure Humidity
    00:00 +13°C° 0.1 mm 1 mps 622 mmHg 75%
    01:00 +13°C° 0.1 mm 1 mps 621 mmHg 75%
    02:00 +13°C° 0.1 mm 1 mps 621 mmHg 75%
    03:00 +13°C° 0.1 mm 1 mps 621 mmHg 75%
    04:00 +13°C° 0.1 mm 1 mps 621 mmHg 75%
    05:00 +13°C° 0.1 mm 1 mps 621 mmHg 75%
    06:00 +13°C° 0.1 mm 1 mps 621 mmHg 75%
    07:00 +15°C° 0.2 mm 1 mps 622 mmHg 68%
    08:00 +18°C° 0.2 mm 1 mps 623 mmHg 61%
    09:00 +21°C° 0.2 mm 1 mps 624 mmHg 53%
    10:00 +21°C° 0.6 mm 1 mps 625 mmHg 51%
    11:00 +22°C° 0.6 mm 1 mps 625 mmHg 50%
    12:00 +23°C° 0.6 mm 1 mps 625 mmHg 48%
    13:00 +22°C° 1 mm 1 mps 624 mmHg 50%
    14:00 +22°C° 1 mm 1 mps 624 mmHg 52%
    15:00 +22°C° 1 mm 1 mps 623 mmHg 54%
    16:00 +20°C° 0.6 mm 1 mps 623 mmHg 59%
    17:00 +19°C° 0.6 mm 1 mps 623 mmHg 63%
    18:00 +18°C° 0.6 mm 1 mps 622 mmHg 68%
    19:00 +16°C° 0.2 mm 1 mps 622 mmHg 73%
    20:00 +15°C° 0.2 mm 2 mps 622 mmHg 78%
    21:00 +14°C° 0.2 mm 2 mps 622 mmHg 83%
    22:00 +13°C° 0.2 mm 2 mps 622 mmHg 84%
    23:00 +13°C° 0.2 mm 2 mps 622 mmHg 86%

    24 August, Friday

    Time Temperature Precipitation Wind Pressure Humidity
    00:00 +12°C° 0.2 mm 2 mps 621 mmHg 87%
    01:00 +12°C° 0.1 mm 2 mps 621 mmHg 88%
    02:00 +12°C° 0.1 mm 2 mps 621 mmHg 88%
    03:00 +10°C° 0.1 mm 2 mps 621 mmHg 89%
    04:00 +10°C° 0 mm 2 mps 621 mmHg 89%
    05:00 +10°C° 0 mm 2 mps 621 mmHg 89%
    06:00 +10°C° 0 mm 2 mps 621 mmHg 88%
    07:00 +13°C° 0 mm 2 mps 622 mmHg 81%
    08:00 +15°C° 0 mm 2 mps 623 mmHg 73%
    09:00 +17°C° 0 mm 2 mps 624 mmHg 65%
    10:00 +18°C° 0.2 mm 2 mps 624 mmHg 61%
    11:00 +19°C° 0.2 mm 2 mps 624 mmHg 58%
    12:00 +20°C° 0.2 mm 2 mps 624 mmHg 54%
    13:00 +19°C° 0.7 mm 3 mps 624 mmHg 56%
    14:00 +19°C° 0.7 mm 3 mps 623 mmHg 57%
    15:00 +19°C° 0.7 mm 3 mps 623 mmHg 59%
    16:00 +18°C° 0.6 mm 3 mps 622 mmHg 64%
    17:00 +16°C° 0.6 mm 3 mps 622 mmHg 70%
    18:00 +14°C° 0.6 mm 3 mps 621 mmHg 75%
    19:00 +14°C° 0.2 mm 2 mps 621 mmHg 80%
    20:00 +13°C° 0.2 mm 2 mps 621 mmHg 84%
    21:00 +12°C° 0.2 mm 2 mps 621 mmHg 88%
    22:00 +12°C° 0 mm 2 mps 621 mmHg 89%
    23:00 +10°C° 0 mm 2 mps 621 mmHg 90%

    25 August, Saturday

    Time Temperature Precipitation Wind Pressure Humidity
    00:00 +10°C° 0 mm 2 mps 621 mmHg 91%
    01:00 +9°C° 0 mm 2 mps 620 mmHg 92%
    02:00 +9°C° 0 mm 2 mps 620 mmHg 93%
    03:00 +9°C° 0 mm 2 mps 619 mmHg 93%
    04:00 +9°C° 0 mm 2 mps 620 mmHg 93%
    05:00 +9°C° 0 mm 2 mps 620 mmHg 92%
    06:00 +9°C° 0 mm 2 mps 620 mmHg 91%
    07:00 +9°C° 0 mm 2 mps 620 mmHg 88%
    08:00 +10°C° 0 mm 2 mps 620 mmHg 84%
    09:00 +12°C° 0 mm 2 mps 620 mmHg 80%
    10:00 +12°C° 0.1 mm 2 mps 621 mmHg 75%
    11:00 +13°C° 0.1 mm 2 mps 621 mmHg 71%
    12:00 +14°C° 0.1 mm 2 mps 621 mmHg 66%
    13:00 +14°C° 0.1 mm 2 mps 620 mmHg 66%
    14:00 +13°C° 0.1 mm 3 mps 620 mmHg 66%
    15:00 +13°C° 0.1 mm 3 mps 619 mmHg 66%
    16:00 +12°C° 0.4 mm 3 mps 619 mmHg 70%
    17:00 +11°C° 0.4 mm 3 mps 619 mmHg 74%
    18:00 +10°C° 0.4 mm 3 mps 619 mmHg 78%
    19:00 +9°C° 0.1 mm 3 mps 619 mmHg 81%
    20:00 +9°C° 0.1 mm 2 mps 619 mmHg 84%
    21:00 +8°C° 0.1 mm 2 mps 619 mmHg 87%
    22:00 +7°C° 0.1 mm 2 mps 619 mmHg 88%
    23:00 +7°C° 0.1 mm 2 mps 619 mmHg 89%

    26 August, Sunday

    Time Temperature Precipitation Wind Pressure Humidity
    00:00 +7°C° 0.1 mm 2 mps 619 mmHg 90%
    01:00 +6°C° 0 mm 2 mps 618 mmHg 89%
    02:00 +6°C° 0 mm 2 mps 618 mmHg 89%
    03:00 +5°C° 0 mm 2 mps 618 mmHg 89%
    04:00 +5°C° 0 mm 2 mps 618 mmHg 89%
    05:00 +5°C° 0 mm 2 mps 618 mmHg 89%
    06:00 +5°C° 0 mm 2 mps 618 mmHg 88%
    07:00 +7°C° 0 mm 2 mps 619 mmHg 79%
    08:00 +9°C° 0 mm 2 mps 620 mmHg 69%
    09:00 +12°C° 0 mm 2 mps 621 mmHg 60%
    10:00 +13°C° 0 mm 2 mps 621 mmHg 54%
    11:00 +15°C° 0 mm 2 mps 622 mmHg 48%
    12:00 +16°C° 0 mm 2 mps 622 mmHg 42%
    13:00 +17°C° 0 mm 2 mps 622 mmHg 42%
    14:00 +17°C° 0 mm 2 mps 622 mmHg 41%
    15:00 +17°C° 0 mm 2 mps 622 mmHg 41%
    16:00 +16°C° 0 mm 2 mps 621 mmHg 48%
    17:00 +14°C° 0 mm 2 mps 621 mmHg 54%
    18:00 +13°C° 0 mm 1 mps 620 mmHg 61%
    19:00 +11°C° 0 mm 1 mps 620 mmHg 66%
    20:00 +10°C° 0 mm 1 mps 620 mmHg 71%
    21:00 +9°C° 0 mm 1 mps 619 mmHg 76%
    22:00 +8°C° 0 mm 1 mps 619 mmHg 77%
    23:00 +8°C° 0 mm 1 mps 619 mmHg 78%
    Show more